EW5206 Weather Reports


time (UTC)temp
C
wind
direction
speed
KPH
gust
KPH
rain 1hr
cm
rain 24hr
cm
rain mn
cm
humidity
%
barometer
mb
20260906110040 19 0.0 0.0 0.00 0.00 0.00 93 1011.7
20260906104543 19 0.0 0.0 0.00 0.00 0.00 93 1011.4
20260906103047 19 0.0 0.0 0.00 0.00 0.00 93 1011.5
20260906101542 19 0.0 0.0 0.00 0.00 0.00 93 1011.6
20260906100041 18 0.0 0.0 0.00 0.00 0.00 92 1011.4
20260906094547 18 0.0 0.0 0.00 0.00 0.00 92 1011.5
20260906093040 18 0.0 0.0 0.00 0.00 0.00 92 1011.4
20260906091538 18 0.0 0.0 0.00 0.00 0.00 92 1011.3
20260906090035 19 0.0 0.0 0.00 0.00 0.00 91 1010.9
20260906084534 19 0.0 0.0 0.00 0.00 0.00 91 1011.1
20260906083032 19 0.0 0.0 0.00 0.00 0.00 90 1010.9
20260906081530 20 0.0 0.0 0.00 0.00 0.00 89 1010.7
20260906080028 20 0.0 0.0 0.00 0.00 0.00 90 1010.6
20260906074528 20 0.0 0.0 0.00 0.00 0.00 89 1010.7
20260906073027 20 0.0 0.0 0.00 0.00 0.00 89 1010.7
20260906071526 20 0.0 0.0 0.00 0.00 0.00 90 1010.8
20260906070025 20 0.0 0.0 0.00 0.00 0.00 90 1011.0
20260906064524 20 0.0 0.0 0.00 0.00 0.00 89 1011.2
20260906063030 20 0.0 0.0 0.00 0.00 0.00 90 1011.3
20260906061523 20 0.0 0.0 0.00 0.00 0.00 89 1011.3
20260906060022 20 0.0 0.0 0.00 0.00 0.00 88 1011.2
20260906054527 20 0.0 0.0 0.00 0.00 0.00 87 1011.2
20260906053019 20 0.0 0.0 0.00 0.00 0.00 87 1011.3
20260906051519 21 0.0 0.0 0.00 0.00 0.00 86 1011.2
20260906050019 21 0.0 0.0 0.00 0.00 0.00 85 1011.2
20260906044512 21 0.0 0.0 0.00 0.00 0.00 85 1011.1
20260906043011 21 0.0 0.0 0.00 0.00 0.00 84 1011.4
20260906041509 21 0.0 0.0 0.00 0.00 0.00 83 1011.5
20260906040007 21 0.0 0.0 0.00 0.00 0.00 83 1011.5
20260906034506 21 0.0 0.0 0.00 0.00 0.00 83 1011.3
20260906033006 21 0.0 0.0 0.00 0.00 0.00 83 1011.7
20260906031513 21 0.0 0.0 0.00 0.00 0.00 82 1011.9
20260906030009 21 0.0 0.0 0.00 0.00 0.00 81 1011.9
20260906024511 22 0.0 0.0 0.00 0.00 0.00 79 1011.8
20260906023003 22 0.0 0.0 0.00 0.00 0.00 79 1011.9
20260906021503 22 0.0 0.0 0.00 0.00 0.00 77 1011.9
20260906020002 22 0.0 0.0 0.00 0.00 0.00 76 1011.7
20260906014503 23 0.0 0.0 0.00 0.00 0.00 76 1011.6
20260906013001 23 0.0 0.0 0.00 0.00 0.00 75 1011.4
20260906011502 23 0.0 0.0 0.00 0.00 0.00 74 1011.3
20260906010100 23 0.0 0.0 0.00 0.00 0.00 73 1011.1
20260906004603 24 0.0 0.0 0.00 0.00 0.00 71 1011.0
20260906003059 24 0.0 0.0 0.00 0.00 0.00 70 1010.9
20260906001559 25 0.0 0.0 0.00 0.00 0.00 69 1010.8
20260906000106 25 0.0 0.0 0.00 0.00 0.00 68 1010.6
20260905234605 25 0.0 0.0 0.00 0.00 0.00 65 1010.6
20260905233058 26 0.0 0.0 0.00 0.00 0.00 64 1010.4
20260905231557 26 0.0 0.0 0.00 0.00 0.00 62 1010.4
20260905230057 26 0.0 0.0 0.00 0.00 0.00 61 1010.6
20260905224555 27 0.0 0.0 0.00 0.00 0.00 60 1010.6
20260905223054 27 0.0 0.0 0.00 0.00 0.00 60 1010.5
20260905221554 27 0.0 0.0 0.00 0.00 0.00 59 1010.4
20260905220053 27 0.0 0.0 0.00 0.00 0.00 59 1010.3
20260905214553 27 0.0 0.0 0.00 0.00 0.00 60 1010.0
20260905213059 28 0.0 0.0 0.00 0.00 0.00 59 1009.9
20260905211606 28 0.0 0.0 0.00 0.00 0.00 58 1009.8
20260905204554 28 0.0 0.0 0.00 0.00 0.00 57 1009.8
20260905203051 28 0.0 0.0 0.00 0.00 0.00 56 1009.7
20260905201556 28 0.0 0.0 0.00 0.00 0.00 55 1009.7
20260905194549 28 0.0 0.0 0.00 0.00 0.00 56 1009.5
20260905193048 27 0.0 0.0 0.00 0.00 0.00 57 1009.7
20260905191548 27 0.0 0.0 0.00 0.00 0.00 59 1009.9
20260905190044 27 0.0 0.0 0.00 0.00 0.00 60 1009.9
20260905184541 27 0.0 0.0 0.00 0.00 0.00 63 1010.3
20260905183039 27 0.0 0.0 0.00 0.00 0.00 66 1010.7
20260905181537 27 0.0 0.0 0.00 0.00 0.00 68 1011.0
20260905180036 26 0.0 0.0 0.00 0.00 0.00 72 1011.3
20260905174537 26 0.0 0.0 0.00 0.00 0.00 69 1011.2
20260905173053 26 0.0 0.0 0.00 0.00 0.00 69 1011.3
20260905171539 26 0.0 0.0 0.00 0.00 0.00 68 1011.1
20260905170033 27 0.0 0.0 0.00 0.00 0.00 67 1011.2
20260905164533 27 0.0 0.0 0.00 0.00 0.00 65 1011.6
20260905163032 27 0.0 0.0 0.00 0.00 0.00 67 1011.7
20260905161532 26 0.0 0.0 0.00 0.00 0.00 68 1011.8
20260905160034 24 0.0 0.0 0.00 0.00 0.00 74 1012.3
20260905154534 24 0.0 0.0 0.00 0.00 0.00 73 1012.3
20260905153030 24 0.0 0.0 0.00 0.00 0.00 71 1012.7
20260905151530 25 0.0 0.0 0.00 0.00 0.00 69 1012.5
20260905150029 25 0.0 0.0 0.00 0.00 0.00 69 1012.8
20260905144527 27 0.0 0.0 0.00 0.00 0.00 69 1012.6
20260905143032 27 0.0 0.0 0.00 0.00 0.00 70 1011.7
20260905141528 28 0.0 0.0 0.00 0.00 0.00 67 1011.8
20260905140021 29 0.0 0.0 0.00 0.00 0.00 67 1011.9
20260905134517 28 0.0 0.0 0.00 0.00 0.00 70 1011.7
20260905133013 27 0.0 0.0 0.00 0.00 0.00 75 1011.8
20260905131514 26 0.0 0.0 0.00 0.00 0.00 76 1011.7
20260905130006 25 0.0 0.0 0.00 0.00 0.00 79 1011.7
20260905124502 23 0.0 0.0 0.00 0.00 0.00 84 1011.8
20260905123057 22 0.0 0.0 0.00 0.00 0.00 87 1011.8
20260905121556 21 0.0 0.0 0.00 0.00 0.00 92 1011.8
20260905120052 20 0.0 0.0 0.00 0.00 0.00 93 1011.6
20260905114552 20 0.0 0.0 0.00 0.00 0.00 92 1011.5
20260905113052 20 0.0 0.0 0.00 0.00 0.00 92 1011.6
20260905111551 20 0.0 0.0 0.00 0.00 0.00 91 1011.6